• In United States
  • List of Countries
  • For 7 days
  • Water Temperature
  • Satellite Maps
  • Weather Map
  • Weather Widgets
  • user-avatar
    Login

    Hourly Weather Lezhe

    Today, 25 February, Sunday

    Time Temperature Precipitation Wind Pressure Humidity
    00:00 +3°C° 0 mm 4 mps 732 mmHg 79%
    01:00 +1°C° 0 mm 4 mps 732 mmHg 79%
    02:00 +1°C° 0 mm 5 mps 732 mmHg 78%
    03:00 0°C° 0 mm 5 mps 732 mmHg 78%
    04:00 0°C° 0 mm 5 mps 732 mmHg 77%
    05:00 0°C° 0.4 mm 5 mps 732 mmHg 77%
    06:00 -1°C° 0.4 mm 5 mps 732 mmHg 77%
    07:00 -1°C° 0.4 mm 5 mps 732 mmHg 77%
    08:00 -1°C° 0.7 mm 5 mps 732 mmHg 78%
    09:00 -2°C° 0.7 mm 6 mps 732 mmHg 80%
    10:00 -2°C° 0.7 mm 6 mps 732 mmHg 81%
    11:00 -2°C° 0.6 mm 6 mps 732 mmHg 82%
    12:00 -2°C° 0.6 mm 6 mps 732 mmHg 83%
    13:00 -2°C° 0.6 mm 6 mps 731 mmHg 84%
    14:00 -2°C° 0.4 mm 6 mps 731 mmHg 84%
    15:00 -2°C° 0.4 mm 6 mps 731 mmHg 83%
    16:00 -2°C° 0.4 mm 6 mps 731 mmHg 83%
    17:00 -2°C° 0.6 mm 6 mps 730 mmHg 83%
    18:00 -3°C° 0.6 mm 6 mps 730 mmHg 83%
    19:00 -3°C° 0.6 mm 6 mps 730 mmHg 83%
    20:00 -3°C° 0.6 mm 6 mps 730 mmHg 83%
    21:00 -4°C° 0.6 mm 6 mps 730 mmHg 84%
    22:00 -4°C° 0.6 mm 6 mps 729 mmHg 84%
    23:00 -4°C° 0.6 mm 6 mps 729 mmHg 84%

    Tomorrow, 26 February, Monday

    Time Temperature Precipitation Wind Pressure Humidity
    00:00 -4°C° 0.6 mm 6 mps 729 mmHg 85%
    01:00 -4°C° 0.6 mm 6 mps 729 mmHg 86%
    02:00 -4°C° 0.5 mm 6 mps 728 mmHg 86%
    03:00 -4°C° 0.5 mm 6 mps 728 mmHg 86%
    04:00 -4°C° 0.5 mm 6 mps 727 mmHg 86%
    05:00 -4°C° 0.3 mm 5 mps 727 mmHg 86%
    06:00 -4°C° 0.3 mm 5 mps 727 mmHg 86%
    07:00 -5°C° 0.3 mm 5 mps 727 mmHg 86%
    08:00 -3°C° 0.2 mm 4 mps 727 mmHg 85%
    09:00 -2°C° 0.2 mm 4 mps 727 mmHg 83%
    10:00 -1°C° 0.2 mm 4 mps 727 mmHg 82%
    11:00 0°C° 0.1 mm 4 mps 727 mmHg 82%
    12:00 +1°C° 0.1 mm 3 mps 726 mmHg 82%
    13:00 +2°C° 0.1 mm 3 mps 726 mmHg 81%
    14:00 +2°C° 0.3 mm 3 mps 726 mmHg 82%
    15:00 +2°C° 0.3 mm 3 mps 726 mmHg 82%
    16:00 +1°C° 0.3 mm 3 mps 726 mmHg 83%
    17:00 +2°C° 0.4 mm 2 mps 727 mmHg 85%
    18:00 +1°C° 0.4 mm 2 mps 727 mmHg 87%
    19:00 -1°C° 0.4 mm 2 mps 727 mmHg 89%
    20:00 -1°C° 0.2 mm 2 mps 728 mmHg 89%
    21:00 -1°C° 0.2 mm 2 mps 728 mmHg 89%
    22:00 -1°C° 0.2 mm 2 mps 729 mmHg 89%
    23:00 -1°C° 0.3 mm 2 mps 729 mmHg 90%

    Day after tomorrow, 27 February, Tuesday

    Time Temperature Precipitation Wind Pressure Humidity
    00:00 -1°C° 0.3 mm 2 mps 729 mmHg 91%
    01:00 -1°C° 0.3 mm 2 mps 729 mmHg 92%
    02:00 -1°C° 0.3 mm 2 mps 729 mmHg 93%
    03:00 -1°C° 0.3 mm 2 mps 729 mmHg 93%
    04:00 -1°C° 0.3 mm 2 mps 729 mmHg 94%
    05:00 -1°C° 0.4 mm 2 mps 730 mmHg 93%
    06:00 -1°C° 0.4 mm 2 mps 730 mmHg 92%
    07:00 -1°C° 0.4 mm 2 mps 730 mmHg 92%
    08:00 +1°C° 0.6 mm 2 mps 731 mmHg 90%
    09:00 +1°C° 0.6 mm 2 mps 731 mmHg 89%
    10:00 +1°C° 0.6 mm 3 mps 731 mmHg 87%
    11:00 +1°C° 0.3 mm 3 mps 731 mmHg 86%
    12:00 +2°C° 0.3 mm 3 mps 731 mmHg 85%
    13:00 +2°C° 0.3 mm 3 mps 731 mmHg 83%
    14:00 +2°C° 0.2 mm 3 mps 731 mmHg 82%
    15:00 +3°C° 0.2 mm 2 mps 731 mmHg 81%
    16:00 +3°C° 0.2 mm 2 mps 732 mmHg 80%
    17:00 +2°C° 0.1 mm 2 mps 732 mmHg 82%
    18:00 +1°C° 0.1 mm 2 mps 732 mmHg 85%
    19:00 -1°C° 0.1 mm 2 mps 733 mmHg 87%
    20:00 -1°C° 0.1 mm 2 mps 733 mmHg 86%
    21:00 -1°C° 0.1 mm 2 mps 733 mmHg 85%
    22:00 -1°C° 0.1 mm 2 mps 733 mmHg 85%
    23:00 -1°C° 0.2 mm 2 mps 733 mmHg 85%

    28 February, Wednesday

    Time Temperature Precipitation Wind Pressure Humidity
    00:00 -1°C° 0.2 mm 3 mps 733 mmHg 85%
    01:00 -1°C° 0.2 mm 3 mps 733 mmHg 85%
    02:00 -1°C° 0.3 mm 3 mps 733 mmHg 86%
    03:00 -1°C° 0.3 mm 3 mps 733 mmHg 86%
    04:00 -1°C° 0.3 mm 3 mps 732 mmHg 87%
    05:00 -1°C° 0.4 mm 3 mps 732 mmHg 88%
    06:00 -1°C° 0.4 mm 3 mps 733 mmHg 89%
    07:00 -1°C° 0.4 mm 3 mps 733 mmHg 90%
    08:00 0°C° 0.3 mm 3 mps 733 mmHg 88%
    09:00 0°C° 0.3 mm 3 mps 733 mmHg 86%
    10:00 +2°C° 0.3 mm 2 mps 734 mmHg 84%
    11:00 +3°C° 0 mm 2 mps 734 mmHg 81%
    12:00 +3°C° 0 mm 2 mps 734 mmHg 79%
    13:00 +4°C° 0 mm 2 mps 734 mmHg 77%
    14:00 +3°C° 0 mm 3 mps 734 mmHg 75%
    15:00 +3°C° 0 mm 3 mps 735 mmHg 74%
    16:00 +3°C° 0 mm 3 mps 735 mmHg 72%
    17:00 +1°C° 0 mm 3 mps 736 mmHg 75%
    18:00 0°C° 0 mm 3 mps 737 mmHg 77%
    19:00 -1°C° 0 mm 3 mps 738 mmHg 80%
    20:00 -2°C° 0 mm 3 mps 738 mmHg 81%
    21:00 -3°C° 0 mm 2 mps 739 mmHg 81%
    22:00 -3°C° 0 mm 2 mps 740 mmHg 82%
    23:00 -3°C° 0 mm 2 mps 740 mmHg 83%

    1 March, Thursday

    Time Temperature Precipitation Wind Pressure Humidity
    00:00 -4°C° 0 mm 2 mps 740 mmHg 83%
    01:00 -4°C° 0 mm 2 mps 740 mmHg 84%
    02:00 -4°C° 0 mm 2 mps 740 mmHg 82%
    03:00 -5°C° 0 mm 2 mps 740 mmHg 80%
    04:00 -5°C° 0 mm 2 mps 740 mmHg 77%
    05:00 -4°C° 0 mm 2 mps 740 mmHg 75%
    06:00 -4°C° 0 mm 2 mps 740 mmHg 72%
    07:00 -3°C° 0 mm 2 mps 740 mmHg 70%
    08:00 -1°C° 0 mm 2 mps 740 mmHg 68%
    09:00 +2°C° 0 mm 2 mps 739 mmHg 66%
    10:00 +4°C° 0 mm 2 mps 739 mmHg 65%
    11:00 +4°C° 0 mm 2 mps 738 mmHg 68%
    12:00 +5°C° 0 mm 2 mps 738 mmHg 71%
    13:00 +7°C° 0 mm 1 mps 737 mmHg 74%
    14:00 +6°C° 0 mm 2 mps 737 mmHg 74%
    15:00 +5°C° 0 mm 2 mps 737 mmHg 74%
    16:00 +5°C° 0 mm 2 mps 736 mmHg 74%
    17:00 +5°C° 0.3 mm 2 mps 736 mmHg 77%
    18:00 +4°C° 0.3 mm 2 mps 736 mmHg 80%
    19:00 +3°C° 0.3 mm 2 mps 736 mmHg 83%
    20:00 +4°C° 0.6 mm 2 mps 736 mmHg 85%
    21:00 +4°C° 0.6 mm 2 mps 736 mmHg 88%
    22:00 +4°C° 0.6 mm 2 mps 736 mmHg 90%
    23:00 +4°C° 0.8 mm 2 mps 735 mmHg 91%

    2 March, Friday

    Time Temperature Precipitation Wind Pressure Humidity
    00:00 +5°C° 0.8 mm 2 mps 735 mmHg 91%
    01:00 +5°C° 0.8 mm 2 mps 735 mmHg 92%
    02:00 +5°C° 1 mm 2 mps 734 mmHg 92%
    03:00 +5°C° 1 mm 2 mps 734 mmHg 93%
    04:00 +4°C° 1 mm 3 mps 733 mmHg 94%
    05:00 +4°C° 1 mm 3 mps 733 mmHg 94%
    06:00 +5°C° 1 mm 3 mps 733 mmHg 94%
    07:00 +5°C° 1 mm 3 mps 733 mmHg 94%
    08:00 +5°C° 0.8 mm 3 mps 733 mmHg 94%
    09:00 +5°C° 0.8 mm 3 mps 733 mmHg 94%
    10:00 +7°C° 0.8 mm 2 mps 732 mmHg 94%
    11:00 +7°C° 0.8 mm 3 mps 732 mmHg 94%
    12:00 +7°C° 0.8 mm 3 mps 732 mmHg 94%
    13:00 +7°C° 0.8 mm 3 mps 732 mmHg 94%
    14:00 +7°C° 0.9 mm 3 mps 732 mmHg 94%
    15:00 +7°C° 0.9 mm 3 mps 732 mmHg 94%
    16:00 +7°C° 0.9 mm 3 mps 732 mmHg 94%
    17:00 +7°C° 0.4 mm 3 mps 732 mmHg 94%
    18:00 +7°C° 0.4 mm 2 mps 732 mmHg 93%
    19:00 +7°C° 0.4 mm 2 mps 732 mmHg 93%
    20:00 +7°C° 0.5 mm 2 mps 732 mmHg 93%
    21:00 +7°C° 0.5 mm 3 mps 732 mmHg 93%
    22:00 +7°C° 0.5 mm 3 mps 732 mmHg 93%
    23:00 +7°C° 0.4 mm 3 mps 732 mmHg 92%
    Show more